Albany, GA

8:14 PM EDT on October 20, 2017 (GMT -0400)
Southwest Georgia Regional

Weather History for KABY - October, 2012

Change the Weather History Date:

Monday, October 1, 2012

  Actual Average Record
Temperature  
Mean Temperature 78 °F 73 °F  
Max Temperature 83 °F 84 °F 95 °F (1959)
Min Temperature 72 °F 62 °F 37 °F (1967)
Degree Days  
Heating Degree Days 0 0  
Month to date heating degree days 0 0  
Since 1 July heating degree days 0 1  
Cooling Degree Days 13 8  
Month to date cooling degree days 13 8  
Year to date cooling degree days 2664 2364  
Growing Degree Days 26 (Base 50)    
Moisture  
Dew Point 73 °F    
Average Humidity 85    
Maximum Humidity 100    
Minimum Humidity 69    
Precipitation  
Precipitation 0.50 in 0.08 in 0.50 in (2012)
Month to date precipitation 0.50 0.08  
Year to date precipitation 26.88 39.12  
Sea Level Pressure  
Sea Level Pressure 29.72 in    
Wind  
Wind Speed 8 mph (SSE)    
Max Wind Speed 18 mph    
Max Gust Speed 24 mph    
Visibility 8 miles    
Events Rain , Thunderstorm    
T = Trace of Precipitation, MM = Missing Value Source: NWS Daily Summary

Daily Weather History Graph

Daily Weather History Graph

Search for Another Location

Airport or City:

Trip Planner

Search our weather history database for the weather conditions in past years. The results will help you decide how hot, cold, wet, or windy it might be!

Date:

Astronomy

Oct. 01, 2012 Rise Set
Actual Time 7:30 AM EDT 7:21 PM EDT
Civil Twilight 7:06 AM EDT 7:45 PM EDT
Nautical Twilight 6:38 AM EDT 8:13 PM EDT
Astronomical Twilight 6:10 AM EDT 8:41 PM EDT
Moon 8:07 PM EDT (10/1) 8:50 AM EDT (10/1)
Length of Visible Light 12h 38m
Length of Day
11h 50m
Full, 98% of the Moon is Illuminated
Oct 1
Full
Oct 8
Last Quarter
Oct 15
New
Oct 21
First Quarter
Oct 29
Full

Hourly Weather History & Observations

Time (EDT) Temp. Heat Index Dew Point Humidity Pressure Visibility Wind Dir Wind Speed Gust Speed Precip Events Conditions
12:53 AM 73.0 °F - 72.0 °F 96% 29.79 in 10.0 mi SSE 4.6 mph - N/A   Clear
1:53 AM 73.0 °F - 72.0 °F 96% 29.77 in 8.0 mi SE 4.6 mph - N/A   Clear
2:37 AM 73.4 °F - 71.6 °F 94% 29.76 in 8.0 mi SE 5.8 mph - N/A   Partly Cloudy
2:53 AM 73.0 °F - 72.0 °F 96% 29.75 in 8.0 mi SE 5.8 mph - N/A   Partly Cloudy
3:53 AM 73.0 °F - 71.1 °F 93% 29.73 in 8.0 mi SE 5.8 mph - N/A   Clear
4:00 AM 71.6 °F - 71.6 °F 100% 29.74 in 7.0 mi SE 6.9 mph - N/A   Partly Cloudy
4:22 AM 71.6 °F - 71.6 °F 100% 29.73 in 7.0 mi SSE 6.9 mph - N/A   Mostly Cloudy
4:53 AM 73.0 °F - 72.0 °F 96% 29.72 in 8.0 mi SE 6.9 mph - N/A   Mostly Cloudy
5:46 AM 73.4 °F - 71.6 °F 94% 29.72 in 7.0 mi SE 8.1 mph - N/A   Scattered Clouds
5:53 AM 73.0 °F - 72.0 °F 96% 29.71 in 7.0 mi SE 8.1 mph - N/A   Scattered Clouds
6:12 AM 73.4 °F - 71.6 °F 94% 29.72 in 8.0 mi SSE 8.1 mph - N/A   Mostly Cloudy
6:53 AM 73.0 °F - 72.0 °F 96% 29.73 in 8.0 mi SSE 9.2 mph - N/A   Overcast
7:53 AM 73.9 °F - 73.0 °F 97% 29.73 in 7.0 mi SSE 8.1 mph - N/A   Overcast
8:06 AM 73.4 °F - 73.4 °F 100% 29.73 in 8.0 mi SSE 8.1 mph - N/A   Overcast
9:53 AM 77.0 °F - 73.9 °F 90% 29.74 in 10.0 mi SSE 12.7 mph - N/A   Mostly Cloudy
10:37 AM 78.8 °F - 73.4 °F 83% 29.75 in 10.0 mi South 11.5 mph - N/A   Scattered Clouds
10:53 AM 78.1 °F - 73.9 °F 87% 29.75 in 10.0 mi SSE 9.2 mph - N/A   Scattered Clouds
11:53 AM 80.1 °F 84.2 °F 73.0 °F 79% 29.73 in 10.0 mi SSE 9.2 mph - N/A   Scattered Clouds
12:53 PM 82.9 °F 88.0 °F 72.0 °F 69% 29.72 in 10.0 mi South 13.8 mph - N/A   Mostly Cloudy
2:53 PM 80.1 °F 83.8 °F 72.0 °F 76% 29.68 in 10.0 mi South 6.9 mph - 0.00 in Rain Light Rain
3:53 PM 77.0 °F - 73.9 °F 90% 29.68 in 6.0 mi Calm Calm - 0.02 in Rain Light Rain
5:24 PM 75.2 °F - 73.4 °F 94% 29.68 in 3.0 mi SSW 4.6 mph - 0.06 in Rain Rain
5:53 PM 75.9 °F - 75.0 °F 97% 29.67 in 10.0 mi South 5.8 mph - 0.07 in   Mostly Cloudy
5:57 PM 77.0 °F - 75.2 °F 94% 29.68 in 10.0 mi South 6.9 mph - N/A   Mostly Cloudy
6:53 PM 78.1 °F - 73.9 °F 87% 29.68 in 10.0 mi SSE 6.9 mph - N/A   Scattered Clouds
7:53 PM 77.0 °F - 73.0 °F 88% 29.68 in 10.0 mi SSE 8.1 mph - 0.00 in   Overcast
8:53 PM 75.9 °F - 73.9 °F 94% 29.69 in 10.0 mi SSE 6.9 mph - 0.01 in   Scattered Clouds
9:53 PM 77.0 °F - 73.9 °F 90% 29.71 in 8.0 mi South 9.2 mph - 0.00 in Rain , Thunderstorm Light Rain
10:10 PM 75.2 °F - 73.4 °F 94% 29.72 in 2.5 mi South 10.4 mph - 0.08 in Rain Heavy Rain
10:18 PM 75.2 °F - 75.2 °F 100% 29.71 in 1.2 mi South 6.9 mph 17.3 mph 0.23 in Rain Heavy Rain
10:24 PM 75.2 °F - 73.4 °F 94% 29.71 in 3.0 mi South 6.9 mph - 0.24 in Rain Rain
10:40 PM 75.2 °F - 73.4 °F 94% 29.72 in 8.0 mi SW 6.9 mph - 0.25 in Rain Light Rain
10:53 PM 75.9 °F - 73.9 °F 94% 29.71 in 10.0 mi South 4.6 mph - 0.25 in   Overcast
11:10 PM 75.2 °F - 73.4 °F 94% 29.73 in 10.0 mi South 6.9 mph - N/A   Mostly Cloudy
11:53 PM 75.0 °F - 73.9 °F 96% 29.71 in 9.0 mi South 5.8 mph - N/A   Mostly Cloudy